Location: Lansingburgh
(42.7845°N, 73.6696°W)
Time: 22:00:42
(UTC+00:00)

Cosmos 2297 Rocket - Pass Details

Date: 24 January 2020
Orbit: 838 x 845 km, 71.0° (Epoch: 19 February)

Event Time Altitude Azimuth Distance (km) Brightness Sun altitude
Rises 22:41:33 0° 202° (SSW) 3,378 6.0 -8.4°
Reaches altitude 10° 22:43:58 10° 202° (SSW) 2,449 5.2 -8.9°
Maximum altitude 22:49:36 88° 116° (ESE) 848 2.2 -9.8°
Drops below altitude 10° 22:55:18 10° 25° (NNE) 2,470 4.2 -10.8°
Enters shadow 22:57:28 - 25° (NNE) 3,300 4.9 -11.2°
